Time,TemperatureF,DewpointF,PressureIn,WindDirection,WindDirectionDegrees,WindSpeedMPH,WindSpeedGustMPH,Humidity,HourlyPrecipIn,Conditions,Clouds,dailyrainin,SoftwareType,DateUTC
2013-01-13 00:00:00,44.0,43.0,30.15,South,190,1.0,6.0,98,-99.99,,,-99.99,,2013-01-13 05:00:00,
2013-01-13 00:23:00,44.0,43.0,30.15,South,190,1.0,6.0,98,-99.99,,,-99.99,,2013-01-13 05:23:00,
2013-01-13 00:33:00,44.0,43.0,30.15,South,190,1.0,6.0,98,-99.99,,,-99.99,,2013-01-13 05:33:00,
2013-01-13 00:42:00,44.0,43.0,30.15,South,190,1.0,6.0,98,-99.99,,,-99.99,,2013-01-13 05:42:00,
2013-01-13 00:53:00,44.0,43.0,30.15,South,190,1.0,6.0,98,-99.99,,,-99.99,,2013-01-13 05:53:00,
2013-01-13 01:00:00,44.0,43.0,30.15,SSE,147,0.0,3.0,98,-99.99,,,-99.99,,2013-01-13 06:00:00,
2013-01-13 01:22:00,44.0,43.0,30.15,SSE,147,0.0,3.0,98,-99.99,,,-99.99,,2013-01-13 06:22:00,
2013-01-13 01:33:00,44.0,43.0,30.15,SSE,147,0.0,3.0,98,-99.99,,,-99.99,,2013-01-13 06:33:00,
2013-01-13 01:42:00,44.0,43.0,30.15,SSE,147,0.0,3.0,98,-99.99,,,-99.99,,2013-01-13 06:42:00,
2013-01-13 01:52:00,44.0,43.0,30.15,SSE,147,0.0,3.0,98,-99.99,,,-99.99,,2013-01-13 06:52:00,
2013-01-13 02:00:00,44.0,43.0,30.15,SE,128,2.0,4.0,99,-99.99,,,-99.99,,2013-01-13 07:00:00,
2013-01-13 02:22:00,44.0,43.0,30.15,SE,128,2.0,4.0,99,-99.99,,,-99.99,,2013-01-13 07:22:00,
2013-01-13 02:33:00,44.0,43.0,30.15,SE,128,2.0,4.0,99,-99.99,,,-99.99,,2013-01-13 07:33:00,
2013-01-13 02:42:00,44.0,43.0,30.15,SE,128,2.0,4.0,99,-99.99,,,-99.99,,2013-01-13 07:42:00,
2013-01-13 02:53:00,44.0,43.0,30.15,SE,128,2.0,4.0,99,-99.99,,,-99.99,,2013-01-13 07:53:00,
2013-01-13 03:00:00,43.0,43.0,30.12,East,82,0.0,5.0,99,-99.99,,,-99.99,,2013-01-13 08:00:00,
2013-01-13 03:22:00,43.0,43.0,30.12,East,82,0.0,5.0,99,-99.99,,,-99.99,,2013-01-13 08:22:00,
2013-01-13 03:32:00,43.0,43.0,30.12,East,82,0.0,5.0,99,-99.99,,,-99.99,,2013-01-13 08:32:00,
2013-01-13 03:42:00,43.0,43.0,30.12,East,82,0.0,5.0,99,-99.99,,,-99.99,,2013-01-13 08:42:00,
2013-01-13 03:53:00,43.0,43.0,30.12,East,82,0.0,5.0,99,-99.99,,,-99.99,,2013-01-13 08:53:00,
2013-01-13 04:00:00,43.0,43.0,30.12,SSW,203,7.0,7.0,99,-99.99,,,-99.99,,2013-01-13 09:00:00,
2013-01-13 04:22:00,43.0,43.0,30.12,SSW,203,7.0,7.0,99,-99.99,,,-99.99,,2013-01-13 09:22:00,
2013-01-13 04:32:00,43.0,43.0,30.12,SSW,203,7.0,7.0,99,-99.99,,,-99.99,,2013-01-13 09:32:00,
2013-01-13 04:43:00,43.0,43.0,30.12,SSW,203,7.0,7.0,99,-99.99,,,-99.99,,2013-01-13 09:43:00,
2013-01-13 04:53:00,43.0,43.0,30.12,SSW,203,7.0,7.0,99,-99.99,,,-99.99,,2013-01-13 09:53:00,
2013-01-13 05:00:00,42.0,42.0,30.12,SSW,201,5.0,7.0,99,-99.99,,,-99.99,,2013-01-13 10:00:00,
2013-01-13 05:22:00,42.0,42.0,30.12,SSW,201,5.0,7.0,99,-99.99,,,-99.99,,2013-01-13 10:22:00,
2013-01-13 05:32:00,42.0,42.0,30.12,SSW,201,5.0,7.0,99,-99.99,,,-99.99,,2013-01-13 10:32:00,
2013-01-13 05:42:00,42.0,42.0,30.12,SSW,201,5.0,7.0,99,-99.99,,,-99.99,,2013-01-13 10:42:00,
2013-01-13 05:53:00,42.0,42.0,30.12,SSW,201,5.0,7.0,99,-99.99,,,-99.99,,2013-01-13 10:53:00,
2013-01-13 06:00:00,42.0,42.0,30.12,SW,217,4.0,7.0,99,-99.99,,,-99.99,,2013-01-13 11:00:00,
2013-01-13 06:22:00,42.0,42.0,30.12,SW,217,4.0,7.0,99,-99.99,,,-99.99,,2013-01-13 11:22:00,
2013-01-13 06:33:00,42.0,42.0,30.12,SW,217,4.0,7.0,99,-99.99,,,-99.99,,2013-01-13 11:33:00,
2013-01-13 06:43:00,42.0,42.0,30.12,SW,217,4.0,7.0,99,-99.99,,,-99.99,,2013-01-13 11:43:00,
2013-01-13 06:53:00,42.0,42.0,30.12,SW,217,4.0,7.0,99,-99.99,,,-99.99,,2013-01-13 11:53:00,
2013-01-13 07:00:00,42.0,41.0,30.12,SSE,165,7.0,10.0,99,-99.99,,,-99.99,,2013-01-13 12:00:00,
2013-01-13 07:22:00,42.0,41.0,30.12,SSE,165,7.0,10.0,99,-99.99,,,-99.99,,2013-01-13 12:22:00,
2013-01-13 07:33:00,42.0,41.0,30.12,SSE,165,7.0,10.0,99,-99.99,,,-99.99,,2013-01-13 12:33:00,
2013-01-13 07:42:00,42.0,41.0,30.12,SSE,165,7.0,10.0,99,-99.99,,,-99.99,,2013-01-13 12:42:00,
2013-01-13 07:53:00,42.0,41.0,30.12,SSE,165,7.0,10.0,99,-99.99,,,-99.99,,2013-01-13 12:53:00,
2013-01-13 08:00:00,42.0,42.0,30.12,SSE,161,11.0,14.0,99,-99.99,,,-99.99,,2013-01-13 13:00:00,
2013-01-13 08:22:00,42.0,42.0,30.12,SSE,161,11.0,14.0,99,-99.99,,,-99.99,,2013-01-13 13:22:00,
2013-01-13 08:33:00,42.0,42.0,30.12,SSE,161,11.0,14.0,99,-99.99,,,-99.99,,2013-01-13 13:33:00,
2013-01-13 08:43:00,42.0,42.0,30.12,SSE,161,11.0,14.0,99,-99.99,,,-99.99,,2013-01-13 13:43:00,
2013-01-13 08:53:00,42.0,42.0,30.12,SSE,161,11.0,14.0,99,-99.99,,,-99.99,,2013-01-13 13:53:00,
2013-01-13 09:00:00,42.0,42.0,30.12,South,171,6.0,12.0,99,-99.99,,,-99.99,,2013-01-13 14:00:00,
2013-01-13 09:22:00,42.0,42.0,30.12,South,171,6.0,12.0,99,-99.99,,,-99.99,,2013-01-13 14:22:00,
2013-01-13 09:33:00,42.0,42.0,30.12,South,171,6.0,12.0,99,-99.99,,,-99.99,,2013-01-13 14:33:00,
2013-01-13 09:43:00,42.0,42.0,30.12,South,171,6.0,12.0,99,-99.99,,,-99.99,,2013-01-13 14:43:00,
2013-01-13 09:53:00,42.0,42.0,30.12,South,171,6.0,12.0,99,-99.99,,,-99.99,,2013-01-13 14:53:00,
2013-01-13 10:00:00,43.0,43.0,30.15,South,178,8.0,13.0,99,-99.99,,,-99.99,,2013-01-13 15:00:00,
2013-01-13 10:23:00,43.0,43.0,30.15,South,178,8.0,13.0,99,-99.99,,,-99.99,,2013-01-13 15:23:00,
2013-01-13 10:33:00,43.0,43.0,30.15,South,178,8.0,13.0,99,-99.99,,,-99.99,,2013-01-13 15:33:00,
2013-01-13 10:43:00,43.0,43.0,30.15,South,178,8.0,13.0,99,-99.99,,,-99.99,,2013-01-13 15:43:00,
2013-01-13 10:53:00,43.0,43.0,30.15,South,178,8.0,13.0,99,-99.99,,,-99.99,,2013-01-13 15:53:00,
2013-01-13 11:00:00,44.0,44.0,30.12,South,178,7.0,12.0,99,-99.99,,,-99.99,,2013-01-13 16:00:00,
2013-01-13 11:23:00,44.0,44.0,30.12,South,178,7.0,12.0,99,-99.99,,,-99.99,,2013-01-13 16:23:00,
2013-01-13 11:33:00,44.0,44.0,30.12,South,178,7.0,12.0,99,-99.99,,,-99.99,,2013-01-13 16:33:00,
2013-01-13 11:43:00,44.0,44.0,30.12,South,178,7.0,12.0,99,-99.99,,,-99.99,,2013-01-13 16:43:00,
2013-01-13 11:53:00,44.0,44.0,30.12,South,178,7.0,12.0,99,-99.99,,,-99.99,,2013-01-13 16:53:00,
2013-01-13 12:00:00,44.0,44.0,30.12,South,173,7.0,12.0,99,-99.99,,,-99.99,,2013-01-13 17:00:00,
2013-01-13 12:22:00,44.0,44.0,30.12,South,173,7.0,12.0,99,-99.99,,,-99.99,,2013-01-13 17:22:00,
2013-01-13 12:33:00,44.0,44.0,30.12,South,173,7.0,12.0,99,-99.99,,,-99.99,,2013-01-13 17:33:00,
2013-01-13 12:43:00,44.0,44.0,30.12,South,173,7.0,12.0,99,-99.99,,,-99.99,,2013-01-13 17:43:00,
2013-01-13 12:53:00,44.0,44.0,30.12,South,173,7.0,12.0,99,-99.99,,,-99.99,,2013-01-13 17:53:00,
2013-01-13 13:00:00,45.0,45.0,30.09,SSE,159,8.0,12.0,99,-99.99,,,-99.99,,2013-01-13 18:00:00,
2013-01-13 13:23:00,45.0,45.0,30.09,SSE,159,8.0,12.0,99,-99.99,,,-99.99,,2013-01-13 18:23:00,
2013-01-13 13:33:00,45.0,45.0,30.09,SSE,159,8.0,12.0,99,-99.99,,,-99.99,,2013-01-13 18:33:00,
2013-01-13 13:43:00,45.0,45.0,30.09,SSE,159,8.0,12.0,99,-99.99,,,-99.99,,2013-01-13 18:43:00,
2013-01-13 13:53:00,45.0,45.0,30.09,SSE,159,8.0,12.0,99,-99.99,,,-99.99,,2013-01-13 18:53:00,
2013-01-13 14:00:00,45.0,45.0,30.06,South,183,10.0,15.0,97,-99.99,,,-99.99,,2013-01-13 19:00:00,
2013-01-13 14:23:00,45.0,45.0,30.06,South,183,10.0,15.0,97,-99.99,,,-99.99,,2013-01-13 19:23:00,
2013-01-13 14:33:00,45.0,45.0,30.06,South,183,10.0,15.0,97,-99.99,,,-99.99,,2013-01-13 19:33:00,
2013-01-13 14:43:00,45.0,45.0,30.06,South,183,10.0,15.0,97,-99.99,,,-99.99,,2013-01-13 19:43:00,
2013-01-13 14:53:00,45.0,45.0,30.06,South,183,10.0,15.0,97,-99.99,,,-99.99,,2013-01-13 19:53:00,
2013-01-13 15:00:00,46.0,44.0,30.06,SSE,164,10.0,16.0,96,-99.99,,,-99.99,,2013-01-13 20:00:00,
2013-01-13 15:23:00,46.0,44.0,30.06,SSE,164,10.0,16.0,96,-99.99,,,-99.99,,2013-01-13 20:23:00,
2013-01-13 15:33:00,46.0,44.0,30.06,SSE,164,10.0,16.0,96,-99.99,,,-99.99,,2013-01-13 20:33:00,
2013-01-13 15:43:00,46.0,44.0,30.06,SSE,164,10.0,16.0,96,-99.99,,,-99.99,,2013-01-13 20:43:00,
2013-01-13 15:53:00,46.0,44.0,30.06,SSE,164,10.0,16.0,96,-99.99,,,-99.99,,2013-01-13 20:53:00,
2013-01-13 16:00:00,46.0,45.0,30.06,South,174,7.0,15.0,95,-99.99,,,-99.99,,2013-01-13 21:00:00,
2013-01-13 16:23:00,46.0,45.0,30.06,South,174,7.0,15.0,95,-99.99,,,-99.99,,2013-01-13 21:23:00,
2013-01-13 16:33:00,46.0,45.0,30.06,South,174,7.0,15.0,95,-99.99,,,-99.99,,2013-01-13 21:33:00,
2013-01-13 16:43:00,46.0,45.0,30.06,South,174,7.0,15.0,95,-99.99,,,-99.99,,2013-01-13 21:43:00,
2013-01-13 16:53:00,46.0,45.0,30.06,South,174,7.0,15.0,95,-99.99,,,-99.99,,2013-01-13 21:53:00,
2013-01-13 17:00:00,47.0,46.0,30.03,South,184,10.0,15.0,96,-99.99,,,-99.99,,2013-01-13 22:00:00,
2013-01-13 17:23:00,47.0,46.0,30.03,South,184,10.0,15.0,96,-99.99,,,-99.99,,2013-01-13 22:23:00,
2013-01-13 17:33:00,47.0,46.0,30.03,South,184,10.0,15.0,96,-99.99,,,-99.99,,2013-01-13 22:33:00,
2013-01-13 17:43:00,47.0,46.0,30.03,South,184,10.0,15.0,96,-99.99,,,-99.99,,2013-01-13 22:43:00,
2013-01-13 17:53:00,47.0,46.0,30.03,South,184,10.0,15.0,96,-99.99,,,-99.99,,2013-01-13 22:53:00,
2013-01-13 18:00:00,47.0,46.0,30.03,SSW,193,10.0,15.0,96,-99.99,,,-99.99,,2013-01-13 23:00:00,
2013-01-13 18:23:00,47.0,46.0,30.03,SSW,193,10.0,15.0,96,-99.99,,,-99.99,,2013-01-13 23:23:00,
2013-01-13 18:33:00,47.0,46.0,30.03,SSW,193,10.0,15.0,96,-99.99,,,-99.99,,2013-01-13 23:33:00,
2013-01-13 18:43:00,47.0,46.0,30.03,SSW,193,10.0,15.0,96,-99.99,,,-99.99,,2013-01-13 23:43:00,
2013-01-13 18:53:00,47.0,46.0,30.03,SSW,193,10.0,15.0,96,-99.99,,,-99.99,,2013-01-13 23:53:00,
2013-01-13 19:00:00,48.0,47.0,30.03,SSW,192,6.0,13.0,98,-99.99,,,-99.99,,2013-01-14 00:00:00,
2013-01-13 19:23:00,48.0,47.0,30.03,SSW,192,6.0,13.0,98,-99.99,,,-99.99,,2013-01-14 00:23:00,
2013-01-13 19:33:00,48.0,47.0,30.03,SSW,192,6.0,13.0,98,-99.99,,,-99.99,,2013-01-14 00:33:00,
2013-01-13 19:43:00,48.0,47.0,30.03,SSW,192,6.0,13.0,98,-99.99,,,-99.99,,2013-01-14 00:43:00,
2013-01-13 19:53:00,48.0,47.0,30.03,SSW,192,6.0,13.0,98,-99.99,,,-99.99,,2013-01-14 00:53:00,
2013-01-13 20:00:00,48.0,48.0,30.03,SSW,193,4.0,9.0,99,-99.99,,,-99.99,,2013-01-14 01:00:00,
2013-01-13 20:22:00,48.0,48.0,30.03,SSW,193,4.0,9.0,99,-99.99,,,-99.99,,2013-01-14 01:22:00,
2013-01-13 20:33:00,48.0,48.0,30.03,SSW,193,4.0,9.0,99,-99.99,,,-99.99,,2013-01-14 01:33:00,
2013-01-13 20:42:00,48.0,48.0,30.03,SSW,193,4.0,9.0,99,-99.99,,,-99.99,,2013-01-14 01:42:00,
2013-01-13 20:53:00,48.0,48.0,30.03,SSW,193,4.0,9.0,99,-99.99,,,-99.99,,2013-01-14 01:53:00,
2013-01-13 21:00:00,48.0,48.0,30.00,South,176,5.0,8.0,99,-99.99,,,-99.99,,2013-01-14 02:00:00,
2013-01-13 21:23:00,48.0,48.0,30.00,South,176,5.0,8.0,99,-99.99,,,-99.99,,2013-01-14 02:23:00,
2013-01-13 21:33:00,48.0,48.0,30.00,South,176,5.0,8.0,99,-99.99,,,-99.99,,2013-01-14 02:33:00,
2013-01-13 21:43:00,48.0,48.0,30.00,South,176,5.0,8.0,99,-99.99,,,-99.99,,2013-01-14 02:43:00,
2013-01-13 21:53:00,48.0,48.0,30.00,South,176,5.0,8.0,99,-99.99,,,-99.99,,2013-01-14 02:53:00,
2013-01-13 22:00:00,47.0,47.0,30.00,South,177,7.0,10.0,99,-99.99,,,-99.99,,2013-01-14 03:00:00,
2013-01-13 22:22:00,47.0,47.0,30.00,South,177,7.0,10.0,99,-99.99,,,-99.99,,2013-01-14 03:22:00,
2013-01-13 22:33:00,47.0,47.0,30.00,South,177,7.0,10.0,99,-99.99,,,-99.99,,2013-01-14 03:33:00,
2013-01-13 22:43:00,47.0,47.0,30.00,South,177,7.0,10.0,99,-99.99,,,-99.99,,2013-01-14 03:43:00,
2013-01-13 22:53:00,47.0,47.0,30.00,South,177,7.0,10.0,99,-99.99,,,-99.99,,2013-01-14 03:53:00,
2013-01-13 23:00:00,48.0,48.0,30.00,SSE,165,4.0,7.0,99,-99.99,,,-99.99,,2013-01-14 04:00:00,
2013-01-13 23:22:00,48.0,48.0,30.00,SSE,165,4.0,7.0,99,-99.99,,,-99.99,,2013-01-14 04:22:00,
2013-01-13 23:32:00,48.0,48.0,30.00,SSE,165,4.0,7.0,99,-99.99,,,-99.99,,2013-01-14 04:32:00,
2013-01-13 23:42:00,48.0,48.0,30.00,SSE,165,4.0,7.0,99,-99.99,,,-99.99,,2013-01-14 04:42:00,
2013-01-13 23:53:00,48.0,48.0,30.00,SSE,165,4.0,7.0,99,-99.99,,,-99.99,,2013-01-14 04:53:00,